DateTimeUTC,F1_A11,F1_S11,BsB_S11,BsG_S11,BsR_S11,BbsB_S11,BbsG_S11,BbsR_S11,BaB_A11,BaG_A11,BaR_A11,Tu_S11,T_S11,Uu_S11,U_S11,P_S11,T1_A11
2021-06-07T02:00:00Z,00000200,20000000,,,,,,,0000.11,0000.04,0000.06,17.1,24.2,04.6,03.0,0672.5,30.9
2021-06-07T02:01:00Z,00000200,20000000,,,,,,,-000.50,-000.65,-000.21,17.1,24.2,04.6,03.0,0672.5,30.9
2021-06-07T02:02:00Z,00000200,20000000,,,,,,,-000.19,-000.21,-000.50,17.1,24.2,04.6,02.9,0672.5,30.9
2021-06-07T02:03:00Z,00000200,60000000,,,,,,,-000.38,-000.58,0000.04,17.1,24.2,04.3,02.8,0672.5,31.0
2021-06-07T02:04:00Z,00000200,40000000,0001.77,0001.25,0000.68,0000.13,0000.15,0000.16,0000.33,0000.53,0000.21,17.2,24.0,04.0,02.6,0673.4,30.9
2021-06-07T02:05:00Z,00000200,00000000,0001.84,0001.29,0000.79,0000.76,0000.18,0000.11,0000.12,0000.34,0000.03,17.2,23.9,03.8,02.5,0673.5,30.9
2021-06-07T02:06:00Z,00000200,00000000,0001.90,0001.41,0000.66,0000.79,0000.16,0000.19,0000.32,-000.05,0000.23,17.2,23.9,03.8,02.5,0673.5,30.9
2021-06-07T02:07:00Z,00000200,00000000,0002.40,0001.16,0000.47,0000.39,0000.36,-000.07,-000.08,0000.10,-000.23,17.2,23.9,03.9,02.6,0673.5,30.9
2021-06-07T02:08:00Z,00000200,00000000,0001.97,0001.30,0000.44,0000.76,0000.23,-000.21,0000.32,-000.02,0000.21,17.2,23.9,03.7,02.5,0673.5,30.9
2021-06-07T02:09:00Z,00000200,00000000,0001.62,0001.26,0000.80,0000.32,0000.08,-000.07,-000.07,0000.34,0000.15,17.2,23.9,03.5,02.4,0673.5,30.9
2021-06-07T02:10:00Z,00000200,00000000,0001.68,0001.21,0000.76,-000.04,0000.26,0000.16,0000.52,0000.34,0000.40,17.2,23.9,03.5,02.3,0673.5,30.9
2021-06-07T02:11:00Z,00000200,00000000,0001.87,0001.43,0000.62,0000.06,0000.04,0000.27,-000.09,0000.11,0000.39,17.2,23.9,03.4,02.3,0673.5,30.9
2021-06-07T02:12:00Z,00000200,00000000,0001.13,0001.37,0000.71,0000.43,0000.25,0000.31,0000.70,0000.43,-000.13,17.2,23.9,03.4,02.3,0673.5,30.9
2021-06-07T02:13:00Z,00000200,00000000,0001.88,0001.21,0000.61,0000.26,0000.06,0000.13,-000.13,-000.13,0000.14,17.2,23.8,03.3,02.2,0673.5,30.9
2021-06-07T02:14:00Z,00000200,00000000,0001.87,0001.21,0000.50,0000.67,0000.11,0000.09,0000.31,0000.50,0000.26,17.2,23.8,03.3,02.2,0673.5,30.9
2021-06-07T02:15:00Z,00000200,00000000,0001.74,0001.35,0000.77,0000.28,0000.17,0000.18,0000.29,0000.16,0000.33,17.2,23.8,03.3,02.2,0673.5,30.9
2021-06-07T02:16:00Z,00000200,00000000,0001.24,0001.64,0000.79,0000.68,0000.26,0000.27,-000.16,-000.14,-000.11,17.2,23.8,03.2,02.1,0673.5,30.9
2021-06-07T02:17:00Z,00000200,00000000,0002.46,0001.10,0000.66,0000.13,-000.09,0000.08,0000.19,-000.00,0000.13,17.2,23.8,03.1,02.1,0673.5,30.9
2021-06-07T02:18:00Z,00000200,00000000,0002.00,0001.21,0000.32,0000.36,-000.12,0000.02,0000.24,0000.11,0000.20,17.2,23.8,02.9,02.0,0673.5,30.9
2021-06-07T02:19:00Z,00000200,00000000,0001.88,0001.09,0000.83,0000.34,0000.19,-000.05,0000.55,0000.54,0000.45,17.2,23.8,02.9,01.9,0673.5,30.9
2021-06-07T02:20:00Z,00000200,00000000,0002.21,0001.16,0000.47,0000.36,0000.12,0000.05,0000.85,0001.07,0000.62,17.2,23.8,03.1,02.0,0673.4,30.9
2021-06-07T02:21:00Z,00000200,00000000,0001.64,0001.43,0000.72,0000.25,0000.25,0000.17,0000.70,0000.51,0000.52,17.2,23.8,03.3,02.2,0673.4,30.9
2021-06-07T02:22:00Z,00000200,00000000,0001.28,0000.89,0000.23,0000.47,0000.24,0000.01,-000.17,0000.01,-000.18,17.2,23.8,03.3,02.2,0673.5,30.9
2021-06-07T02:23:00Z,00000200,00000000,0001.54,0001.22,0000.42,-000.06,0000.11,0000.27,0000.19,-000.32,0000.09,17.2,23.8,03.2,02.1,0673.4,30.9
2021-06-07T02:24:00Z,00000200,00000000,0002.25,0001.31,0000.65,0000.22,0000.18,0000.29,0000.37,0000.55,0000.39,17.2,23.8,03.2,02.1,0673.4,30.9
2021-06-07T02:25:00Z,00000200,00000000,0001.53,0001.40,0000.65,0000.46,0000.14,-000.03,0000.58,0000.51,0000.38,17.2,23.8,03.2,02.1,0673.4,30.9
2021-06-07T02:26:00Z,00000200,00000000,0001.63,0000.71,0000.70,0000.46,0000.32,0000.06,0000.25,0000.60,0000.13,17.2,23.8,03.2,02.2,0673.4,30.9
2021-06-07T02:27:00Z,00000200,00000000,0001.97,0001.12,0000.67,0000.01,0000.11,0000.16,0000.62,0000.26,0000.64,17.2,23.8,03.3,02.2,0673.4,30.9
2021-06-07T02:28:00Z,00000200,00000000,0001.37,0001.05,0000.70,0000.88,0000.01,0000.28,0000.45,0000.30,0000.40,17.2,23.8,03.4,02.3,0673.4,30.9
2021-06-07T02:29:00Z,00000200,00000000,0000.92,0000.97,0000.51,0000.01,0000.30,0000.16,0000.37,0000.45,0000.27,17.2,23.8,03.4,02.3,0673.4,30.9
2021-06-07T02:30:00Z,00000200,00000000,0001.04,0000.82,0000.50,0000.29,0000.04,0000.23,0000.68,0000.81,0000.27,17.2,23.8,03.4,02.3,0673.4,30.9
2021-06-07T02:31:00Z,00000200,00000000,0001.46,0000.95,0000.49,0000.33,0000.10,0000.08,0000.19,0000.14,0000.29,17.2,23.7,03.6,02.4,0673.4,30.9
2021-06-07T02:32:00Z,00000200,00000000,0001.35,0001.01,0000.56,0000.40,0000.18,0000.27,0000.51,0000.25,0000.04,17.2,23.7,03.5,02.3,0673.4,30.9
2021-06-07T02:33:00Z,00000200,00000000,0001.73,0000.97,0000.21,0000.42,0000.31,0000.26,0000.23,0000.42,0000.49,17.1,23.7,03.6,02.4,0673.4,30.9
2021-06-07T02:34:00Z,00000200,00000000,0001.19,0000.86,0000.68,0000.08,0000.00,0000.02,0000.54,0000.53,0000.50,17.1,23.7,03.6,02.4,0673.4,30.9
2021-06-07T02:35:00Z,00000200,00000000,0002.04,0001.39,0000.61,0000.58,0000.45,-000.08,0000.30,0000.01,-000.03,17.1,23.7,03.7,02.5,0673.4,30.9
2021-06-07T02:36:00Z,00000200,00000000,0001.88,0001.37,0000.34,0000.42,0000.23,0000.33,0000.87,0000.97,0000.36,17.1,23.7,03.6,02.4,0673.4,30.9
2021-06-07T02:37:00Z,00000200,00000000,0002.10,0001.19,0000.71,0000.16,0000.58,0000.49,0000.47,0000.40,0000.81,17.1,23.7,03.7,02.5,0673.4,30.9
2021-06-07T02:38:00Z,00000200,00000000,0001.65,0001.57,0000.78,-000.19,0000.20,-000.22,0000.21,0000.45,0000.28,17.1,23.7,03.6,02.4,0673.4,30.9
2021-06-07T02:39:00Z,00000200,00000000,0002.16,0001.24,0000.73,0000.52,0000.02,0000.17,0000.53,0000.40,0000.54,17.1,23.7,03.9,02.6,0673.4,30.9
2021-06-07T02:40:00Z,00000200,00000000,0001.88,0001.33,0000.63,-000.05,0000.11,0000.20,0000.56,0000.72,0000.26,17.1,23.7,03.9,02.6,0673.4,30.9
2021-06-07T02:41:00Z,00000200,00000000,0002.04,0001.61,0000.60,0000.32,0000.04,-000.10,0000.67,0000.34,0000.43,17.1,23.7,03.9,02.6,0673.4,30.9
2021-06-07T02:42:00Z,00000200,00000000,0001.53,0001.16,0000.55,0000.26,0000.22,0000.21,0000.55,0000.37,0000.35,17.1,23.7,04.0,02.7,0673.4,30.9
2021-06-07T02:43:00Z,00000200,00000000,0002.30,0001.01,0000.59,0000.22,0000.28,0000.11,0000.58,0000.59,0000.32,17.1,23.7,04.0,02.7,0673.4,30.9
2021-06-07T02:44:00Z,00000200,00000000,0001.92,0000.91,0000.68,0000.36,0000.17,0000.16,0000.08,0000.29,0000.26,17.1,23.7,04.0,02.7,0673.4,30.9
2021-06-07T02:45:00Z,00000200,00000000,0002.18,0000.80,0000.42,0000.34,0000.25,0000.12,0000.57,0000.77,0000.39,17.1,23.7,04.2,02.8,0673.4,30.9
2021-06-07T02:46:00Z,00000200,00000000,0001.76,0000.99,0000.61,0000.41,0000.43,0000.05,0000.96,0000.40,0000.52,17.1,23.7,04.2,02.8,0673.4,30.9
2021-06-07T02:47:00Z,00000200,00000000,0001.94,0001.41,0000.76,-000.04,0000.54,0000.09,0000.31,0000.73,0000.58,17.1,23.7,04.3,02.8,0673.4,30.9
2021-06-07T02:48:00Z,00000200,00000000,0001.47,0001.17,0000.83,0000.36,0000.12,0000.10,0000.72,0000.12,0000.42,17.1,23.7,04.3,02.9,0673.4,30.9
2021-06-07T02:49:00Z,00000200,00000000,0001.29,0001.67,0000.78,0000.37,0000.36,0000.08,0000.08,0000.58,0000.29,17.1,23.7,04.4,02.9,0673.4,30.9
2021-06-07T02:50:00Z,00000200,00000000,0001.71,0001.28,0000.52,0000.17,0000.23,0000.23,0000.64,0000.29,0000.27,17.1,23.7,04.3,02.9,0673.4,30.9
2021-06-07T02:51:00Z,00000200,00000000,0001.40,0001.61,0000.49,0000.46,0000.21,0000.18,0000.35,0000.44,0000.23,17.1,23.7,04.3,02.9,0673.4,30.9
2021-06-07T02:52:00Z,00000200,00000000,0002.17,0001.21,0000.79,0000.48,0000.09,0000.09,0000.23,0000.25,0000.14,17.1,23.7,04.2,02.8,0673.4,30.9
2021-06-07T02:53:00Z,00000200,00000000,0002.09,0001.45,0000.67,0000.83,0000.10,0000.24,0000.82,0000.62,0000.33,17.1,23.7,04.3,02.9,0673.4,30.9
2021-06-07T02:54:00Z,00000200,00000000,0001.28,0001.25,0000.60,-000.02,0000.04,0000.47,0000.70,0000.68,0000.68,17.1,23.7,04.4,02.9,0673.4,30.9
2021-06-07T02:55:00Z,00000200,00000000,0002.18,0001.36,0000.60,0000.10,0000.26,-000.07,0000.02,0000.17,-000.19,17.1,23.7,04.3,02.9,0673.4,30.9
2021-06-07T02:56:00Z,00000200,00000000,0001.53,0001.19,0000.10,0000.31,0000.27,-000.13,0000.54,0000.33,0000.85,17.1,23.7,04.4,02.9,0673.4,30.9
2021-06-07T02:57:00Z,00000200,40000000,,,,,,,-000.01,0000.07,-000.28,17.2,23.7,04.2,02.8,0673.4,30.9
2021-06-07T02:58:00Z,00000200,60000000,,,,,,,-000.27,-000.42,-000.14,16.9,23.8,04.2,02.7,0672.4,30.9
2021-06-07T02:59:00Z,00000200,20000000,,,,,,,0000.07,0000.52,0000.15,16.8,23.9,04.0,02.6,0672.4,30.9
